This is the latest recevied weather packets stored in our database for station/object KQ4JKJ. If no packets are shown the sender has not sent any weather packets the latest 1 day(s).
| Time | Temp. | Humidity | Pressure | Rain* | Wind** | Luminosity | Snow |
|---|---|---|---|---|---|---|---|
| 1777984503 | 25° C | 74% | 1010.3 hPa | 0 mm | 0.45 m/s, 76° | 220 W/m² | - |
| 1777984199 | 25° C | 74% | 1010.3 hPa | 0 mm | 0.45 m/s, 58° | 200 W/m² | - |
| 1777983896 | 25° C | 74% | 1010.3 hPa | 0 mm | 1.79 m/s, 19° | 188 W/m² | - |
| 1777983593 | 25° C | 75% | 1010.3 hPa | 0 mm | 0.45 m/s, 124° | 172 W/m² | - |
| 1777983289 | 25° C | 75% | 1010.4 hPa | 0 mm | 0.45 m/s, 149° | 157 W/m² | - |
| 1777982985 | 24.44° C | 76% | 1010.5 hPa | 0 mm | 0.45 m/s, 42° | 147 W/m² | - |
| 1777982682 | 24.44° C | 76% | 1010.4 hPa | 0 mm | 1.34 m/s, 117° | 134 W/m² | - |
| 1777982381 | 24.44° C | 77% | 1010.5 hPa | 0 mm | 0.45 m/s, 103° | 125 W/m² | - |
| 1777982078 | 23.89° C | 78% | 1010.4 hPa | 0 mm | 0.89 m/s, 88° | 107 W/m² | - |
| 1777981776 | 23.33° C | 79% | 1010.3 hPa | 0 mm | 0.89 m/s, 165° | 97 W/m² | - |
| 1777981472 | 23.33° C | 81% | 1010.1 hPa | 0 mm | 0.89 m/s, 10° | 70 W/m² | - |
| 1777981168 | 22.78° C | 81% | 1010 hPa | 0 mm | 0.45 m/s, 70° | 43 W/m² | - |
| 1777980865 | 22.78° C | 82% | 1010 hPa | 0 mm | 0.45 m/s, 44° | 41 W/m² | - |
| 1777980561 | 22.78° C | 83% | 1009.9 hPa | 0 mm | 0.45 m/s, 40° | 38 W/m² | - |
| 1777980259 | 22.78° C | 83% | 1009.7 hPa | 0 mm | 0 m/s | 34 W/m² | - |
| 1777979954 | 22.22° C | 84% | 1009.9 hPa | 0 mm | 0.89 m/s, 26° | 31 W/m² | - |
| 1777979649 | 22.22° C | 84% | 1009.9 hPa | 0 mm | 0 m/s | 27 W/m² | - |
| 1777979346 | 22.22° C | 84% | 1009.5 hPa | 0 mm | 1.34 m/s, 139° | 23 W/m² | - |
| 1777979043 | 22.22° C | 84% | 1009.5 hPa | 0 mm | 0.45 m/s, 11° | 19 W/m² | - |
| 1777978739 | 22.22° C | 84% | 1009.5 hPa | 0 mm | 0.45 m/s, 11° | 15 W/m² | - |
| 1777978436 | 21.67° C | 84% | 1009.2 hPa | 0 mm | 0.45 m/s, 10° | 11 W/m² | - |
| 1777978132 | 21.67° C | 84% | 1009.3 hPa | 0 mm | 0.45 m/s, 16° | 8 W/m² | - |
| 1777977830 | 21.67° C | 84% | 1009.6 hPa | 0 mm | 0.45 m/s, 347° | 5 W/m² | - |
| 1777977525 | 21.67° C | 85% | 1009.2 hPa | 0 mm | 0.45 m/s, 6° | 2 W/m² | - |
| 1777977223 | 21.67° C | 85% | 1009.4 hPa | 0 mm | 0 m/s | 1 W/m² | - |
* Rain latest hour (hover to see other rain measurements)
** Current wind speed in m/s (hover to see current wind gust speed)